• In Belgien
  • Länderverzeichnis
  • Für 7 Tage
  • Wassertemperatur
  • Satellitenkarten
  • Wetterkarte
  • Widgets
  • user-avatar
    Anmelden

    Stündliche Wetter Shkoder

    Heute, 23 August, Mittwoch

    Zeit Temperatur Niederschläge Wind Luftdruck Luftfeuchtigkeit
    00:00 +17°C° 0 mm 3 m/S 740 mmHg 63%
    01:00 +16°C° 0 mm 3 m/S 741 mmHg 65%
    02:00 +16°C° 0 mm 3 m/S 740 mmHg 65%
    03:00 +16°C° 0 mm 3 m/S 740 mmHg 66%
    04:00 +16°C° 0 mm 3 m/S 740 mmHg 66%
    05:00 +17°C° 0 mm 3 m/S 741 mmHg 61%
    06:00 +19°C° 0 mm 3 m/S 741 mmHg 55%
    07:00 +21°C° 0 mm 2 m/S 741 mmHg 50%
    08:00 +24°C° 0 mm 2 m/S 741 mmHg 44%
    09:00 +26°C° 0 mm 2 m/S 741 mmHg 37%
    10:00 +28°C° 0 mm 1 m/S 741 mmHg 31%
    11:00 +29°C° 0 mm 2 m/S 741 mmHg 29%
    12:00 +30°C° 0 mm 2 m/S 741 mmHg 27%
    13:00 +31°C° 0 mm 3 m/S 741 mmHg 26%
    14:00 +30°C° 0 mm 3 m/S 741 mmHg 27%
    15:00 +30°C° 0 mm 3 m/S 741 mmHg 29%
    16:00 +30°C° 0 mm 3 m/S 741 mmHg 30%
    17:00 +27°C° 0 mm 2 m/S 741 mmHg 38%
    18:00 +24°C° 0 mm 2 m/S 741 mmHg 46%
    19:00 +22°C° 0 mm 1 m/S 741 mmHg 53%
    20:00 +20°C° 0 mm 2 m/S 742 mmHg 52%
    21:00 +20°C° 0 mm 2 m/S 742 mmHg 51%
    22:00 +19°C° 0 mm 2 m/S 742 mmHg 49%
    23:00 +19°C° 0 mm 2 m/S 742 mmHg 48%

    Morgen, 24 August, Donnerstag

    Zeit Temperatur Niederschläge Wind Luftdruck Luftfeuchtigkeit
    00:00 +19°C° 0 mm 2 m/S 742 mmHg 47%
    01:00 +18°C° 0 mm 2 m/S 742 mmHg 46%
    02:00 +18°C° 0 mm 2 m/S 742 mmHg 47%
    03:00 +18°C° 0 mm 2 m/S 742 mmHg 47%
    04:00 +18°C° 0 mm 2 m/S 742 mmHg 47%
    05:00 +20°C° 0 mm 2 m/S 742 mmHg 45%
    06:00 +21°C° 0 mm 2 m/S 742 mmHg 43%
    07:00 +24°C° 0 mm 2 m/S 743 mmHg 41%
    08:00 +26°C° 0 mm 2 m/S 743 mmHg 37%
    09:00 +29°C° 0 mm 1 m/S 743 mmHg 32%
    10:00 +31°C° 0 mm 1 m/S 743 mmHg 27%
    11:00 +32°C° 0 mm 2 m/S 743 mmHg 27%
    12:00 +32°C° 0 mm 2 m/S 742 mmHg 26%
    13:00 +34°C° 0 mm 3 m/S 742 mmHg 25%
    14:00 +34°C° 0 mm 3 m/S 742 mmHg 27%
    15:00 +33°C° 0 mm 3 m/S 742 mmHg 29%
    16:00 +33°C° 0 mm 3 m/S 742 mmHg 31%
    17:00 +29°C° 0 mm 3 m/S 742 mmHg 37%
    18:00 +26°C° 0 mm 2 m/S 742 mmHg 44%
    19:00 +24°C° 0 mm 1 m/S 742 mmHg 50%
    20:00 +23°C° 0 mm 2 m/S 742 mmHg 49%
    21:00 +23°C° 0 mm 2 m/S 743 mmHg 48%
    22:00 +23°C° 0 mm 2 m/S 743 mmHg 47%
    23:00 +21°C° 0 mm 2 m/S 743 mmHg 47%

    übermorgen, 25 August, Freitag

    Zeit Temperatur Niederschläge Wind Luftdruck Luftfeuchtigkeit
    00:00 +21°C° 0 mm 2 m/S 743 mmHg 47%
    01:00 +21°C° 0 mm 2 m/S 743 mmHg 47%
    02:00 +20°C° 0 mm 2 m/S 743 mmHg 48%
    03:00 +20°C° 0 mm 2 m/S 743 mmHg 48%
    04:00 +20°C° 0 mm 2 m/S 743 mmHg 49%
    05:00 +23°C° 0 mm 2 m/S 743 mmHg 47%
    06:00 +24°C° 0 mm 2 m/S 743 mmHg 44%
    07:00 +26°C° 0 mm 2 m/S 743 mmHg 42%
    08:00 +28°C° 0 mm 2 m/S 743 mmHg 37%
    09:00 +31°C° 0 mm 2 m/S 743 mmHg 31%
    10:00 +33°C° 0 mm 1 m/S 743 mmHg 26%
    11:00 +35°C° 0 mm 2 m/S 743 mmHg 24%
    12:00 +36°C° 0 mm 2 m/S 742 mmHg 23%
    13:00 +36°C° 0 mm 3 m/S 742 mmHg 21%
    14:00 +36°C° 0 mm 3 m/S 742 mmHg 22%
    15:00 +36°C° 0 mm 3 m/S 742 mmHg 24%
    16:00 +35°C° 0 mm 3 m/S 741 mmHg 25%
    17:00 +31°C° 0 mm 3 m/S 741 mmHg 31%
    18:00 +28°C° 0 mm 2 m/S 741 mmHg 36%
    19:00 +25°C° 0 mm 2 m/S 741 mmHg 42%
    20:00 +25°C° 0 mm 2 m/S 742 mmHg 40%
    21:00 +25°C° 0 mm 2 m/S 742 mmHg 39%
    22:00 +24°C° 0 mm 2 m/S 742 mmHg 37%
    23:00 +24°C° 0 mm 2 m/S 742 mmHg 37%

    26 August, Samstag

    Zeit Temperatur Niederschläge Wind Luftdruck Luftfeuchtigkeit
    00:00 +24°C° 0 mm 2 m/S 742 mmHg 36%
    01:00 +23°C° 0 mm 2 m/S 742 mmHg 36%
    02:00 +23°C° 0 mm 2 m/S 742 mmHg 37%
    03:00 +23°C° 0 mm 2 m/S 741 mmHg 38%
    04:00 +21°C° 0 mm 2 m/S 741 mmHg 38%
    05:00 +24°C° 0 mm 2 m/S 741 mmHg 38%
    06:00 +25°C° 0 mm 2 m/S 742 mmHg 37%
    07:00 +27°C° 0 mm 2 m/S 742 mmHg 37%
    08:00 +30°C° 0 mm 2 m/S 742 mmHg 32%
    09:00 +32°C° 0 mm 1 m/S 742 mmHg 27%
    10:00 +34°C° 0 mm 1 m/S 742 mmHg 22%
    11:00 +36°C° 0 mm 2 m/S 741 mmHg 21%
    12:00 +37°C° 0 mm 2 m/S 741 mmHg 20%
    13:00 +37°C° 0 mm 3 m/S 741 mmHg 18%
    14:00 +37°C° 0 mm 3 m/S 740 mmHg 20%
    15:00 +37°C° 0 mm 3 m/S 740 mmHg 21%
    16:00 +36°C° 0 mm 3 m/S 740 mmHg 22%
    17:00 +32°C° 0 mm 2 m/S 740 mmHg 28%
    18:00 +29°C° 0 mm 2 m/S 740 mmHg 33%
    19:00 +26°C° 0 mm 1 m/S 740 mmHg 38%
    20:00 +26°C° 0 mm 1 m/S 740 mmHg 36%
    21:00 +25°C° 0 mm 2 m/S 741 mmHg 34%
    22:00 +25°C° 0 mm 2 m/S 741 mmHg 32%
    23:00 +25°C° 0 mm 2 m/S 741 mmHg 32%

    27 August, Sonntag

    Zeit Temperatur Niederschläge Wind Luftdruck Luftfeuchtigkeit
    00:00 +24°C° 0 mm 2 m/S 741 mmHg 31%
    01:00 +24°C° 0 mm 2 m/S 740 mmHg 30%
    02:00 +24°C° 0 mm 2 m/S 740 mmHg 31%
    03:00 +23°C° 0 mm 2 m/S 740 mmHg 32%
    04:00 +23°C° 0 mm 2 m/S 740 mmHg 32%
    05:00 +25°C° 0 mm 2 m/S 740 mmHg 32%
    06:00 +26°C° 0 mm 2 m/S 741 mmHg 32%
    07:00 +28°C° 0 mm 2 m/S 741 mmHg 32%
    08:00 +30°C° 0 mm 2 m/S 741 mmHg 28%
    09:00 +33°C° 0 mm 1 m/S 740 mmHg 24%
    10:00 +35°C° 0 mm 1 m/S 740 mmHg 20%
    11:00 +37°C° 0 mm 2 m/S 740 mmHg 19%
    12:00 +37°C° 0 mm 2 m/S 740 mmHg 18%
    13:00 +38°C° 0 mm 3 m/S 739 mmHg 17%
    14:00 +38°C° 0 mm 3 m/S 739 mmHg 19%
    15:00 +37°C° 0 mm 3 m/S 739 mmHg 21%
    16:00 +37°C° 0 mm 3 m/S 739 mmHg 23%
    17:00 +32°C° 0 mm 2 m/S 739 mmHg 29%
    18:00 +29°C° 0 mm 2 m/S 739 mmHg 35%
    19:00 +26°C° 0 mm 1 m/S 739 mmHg 42%
    20:00 +26°C° 0 mm 1 m/S 739 mmHg 40%
    21:00 +26°C° 0 mm 1 m/S 739 mmHg 38%
    22:00 +25°C° 0 mm 2 m/S 739 mmHg 36%
    23:00 +25°C° 0 mm 2 m/S 739 mmHg 35%

    28 August, Montag

    Zeit Temperatur Niederschläge Wind Luftdruck Luftfeuchtigkeit
    00:00 +25°C° 0 mm 2 m/S 739 mmHg 34%
    01:00 +25°C° 0 mm 2 m/S 739 mmHg 33%
    02:00 +24°C° 0 mm 2 m/S 739 mmHg 33%
    03:00 +24°C° 0 mm 2 m/S 739 mmHg 33%
    04:00 +24°C° 0 mm 2 m/S 739 mmHg 33%
    05:00 +26°C° 0 mm 1 m/S 739 mmHg 32%
    06:00 +27°C° 0 mm 1 m/S 739 mmHg 32%
    07:00 +29°C° 0 mm 1 m/S 739 mmHg 31%
    08:00 +31°C° 0 mm 1 m/S 739 mmHg 28%
    09:00 +33°C° 0 mm 1 m/S 739 mmHg 25%
    10:00 +36°C° 0 mm 1 m/S 739 mmHg 21%
    11:00 +37°C° 0 mm 2 m/S 738 mmHg 21%
    12:00 +38°C° 0 mm 2 m/S 738 mmHg 21%
    13:00 +38°C° 0 mm 3 m/S 738 mmHg 21%
    14:00 +38°C° 0 mm 3 m/S 737 mmHg 23%
    15:00 +37°C° 0 mm 3 m/S 737 mmHg 26%
    16:00 +36°C° 0 mm 3 m/S 737 mmHg 29%
    17:00 +34°C° 0 mm 2 m/S 737 mmHg 35%
    18:00 +30°C° 0 mm 2 m/S 737 mmHg 42%
    19:00 +27°C° 0 mm 1 m/S 737 mmHg 48%
    20:00 +27°C° 0 mm 1 m/S 738 mmHg 47%
    21:00 +27°C° 0 mm 1 m/S 738 mmHg 47%
    22:00 +26°C° 0 mm 2 m/S 738 mmHg 46%
    23:00 +26°C° 0 mm 2 m/S 738 mmHg 45%
    Mehr zeigen